Location: Chuathbaluk
(61.5726°N, 159.2454°W)
Time: 23:40:32
(UTC+00:00)

Transit 4A - Pass Details

Date: 27 November 2020
Orbit: 864 x 980 km, 66.8° (Epoch: 20 January)

Event Time Altitude Azimuth Distance (km) Brightness Sun altitude
Rises 00:51:41 0° 295° (WNW) 3,692 11.2 2.2°
Reaches altitude 10° 00:54:18 10° 298° (WNW) 2,744 10.5 2.0°
Maximum altitude 01:00:43 65° 20° (NNE) 1,076 8.1 1.6°
Drops below altitude 10° 01:07:02 10° 103° (ESE) 2,708 10.1 1.1°
Sets 01:09:36 0° 106° (ESE) 3,640 10.8 0.9°
